Weather History for KTLH - March, 2014

Change the Weather History Date:

Saturday, March 8, 2014

  Actual Average Record
Temperature  
Mean Temperature 53 °F 59 °F  
Max Temperature 72 °F 72 °F 88 °F (1951)
Min Temperature 34 °F 46 °F 25 °F (1971)
Degree Days  
Heating Degree Days 12    
Month to date heating degree days 91  
Since 1 July heating degree days 1234  
Cooling Degree Days 0    
Month to date cooling degree days 0  
Year to date cooling degree days 12  
Growing Degree Days 3 (Base 50)    
Moisture  
Dew Point 40 °F    
Average Humidity 63    
Maximum Humidity 89    
Minimum Humidity 37    
Precipitation  
Precipitation 0.00 in 0.21 in 4.86 in (1970)
Month to date precipitation 2.25 1.73  
Year to date precipitation 10.30 10.92  
Sea Level Pressure  
Sea Level Pressure 30.14 in    
Wind  
Wind Speed 2 mph (WNW)    
Max Wind Speed 6 mph    
Max Gust Speed -    
Visibility 10 miles    
Events Fog    
T = Trace of Precipitation, MM = Missing Value Source: NWS Daily Summary

Daily Weather History Graph

Daily Weather History Graph

Search for Another Location

Airport or City:

Trip Planner

Search our weather history database for the weather conditions in past years. The results will help you decide how hot, cold, wet, or windy it might be!

Date:

Astronomy

Mar. 08, 2014 Rise Set
Actual Time 6:55 AM EST 6:41 PM EST
Civil Twilight 6:31 AM EST 7:05 PM EST
Nautical Twilight 6:03 AM EST 7:32 PM EST
Astronomical Twilight 5:35 AM EST 8:00 PM EST
Moon 12:01 PM EST (3/8) 1:12 AM EST (3/8)
Length of Visible Light 12h 33m
Length of Day
11h 45m
First Quarter, 51% of the Moon is Illuminated
Mar 8
First Quarter
Mar 16
Full
Mar 23
Last Quarter
Mar 30
New
Apr 7
First Quarter

Hourly Weather History & Observations

Time (EST) Temp. Windchill Dew Point Humidity Pressure Visibility Wind Dir Wind Speed Gust Speed Precip Events Conditions
12:53 AM 39.0 °F - 36.0 °F 89% 30.07 in 10.0 mi Calm Calm - N/A   Clear
1:33 AM 37.4 °F - 33.8 °F 87% 30.07 in 10.0 mi Calm Calm - N/A   Partly Cloudy
1:53 AM 37.0 °F - 34.0 °F 89% 30.08 in 10.0 mi Calm Calm - N/A   Partly Cloudy
2:53 AM 37.0 °F - 33.1 °F 86% 30.10 in 10.0 mi Calm Calm - N/A   Clear
3:53 AM 36.0 °F - 32.0 °F 86% 30.10 in 10.0 mi Calm Calm - N/A   Clear
4:53 AM 37.0 °F - 32.0 °F 82% 30.11 in 10.0 mi Calm Calm - N/A   Clear
5:19 AM 35.6 °F - 32.0 °F 87% 30.11 in 10.0 mi Calm Calm - N/A   Partly Cloudy
5:53 AM 36.0 °F - 32.0 °F 86% 30.12 in 10.0 mi Calm Calm - N/A   Scattered Clouds
6:53 AM 34.0 °F 31.0 °F 30.0 °F 85% 30.16 in 10.0 mi West 3.5 mph - N/A Fog Patches of Fog
7:53 AM 39.0 °F - 34.0 °F 82% 30.18 in 10.0 mi Calm Calm - N/A Fog Patches of Fog
8:53 AM 48.9 °F - 42.1 °F 77% 30.20 in 10.0 mi Calm Calm - N/A Fog Patches of Fog
9:53 AM 57.0 °F - 43.0 °F 59% 30.21 in 10.0 mi Calm Calm - N/A   Partly Cloudy
10:53 AM 60.1 °F - 43.0 °F 53% 30.21 in 10.0 mi North 3.5 mph - N/A   Partly Cloudy
11:53 AM 64.0 °F - 44.1 °F 48% 30.20 in 10.0 mi NNW 3.5 mph - N/A   Partly Cloudy
12:53 PM 66.0 °F - 43.0 °F 43% 30.18 in 10.0 mi Calm Calm - N/A   Partly Cloudy
1:53 PM 68.0 °F - 44.1 °F 42% 30.15 in 10.0 mi Calm Calm - N/A   Partly Cloudy
2:53 PM 69.1 °F - 44.1 °F 40% 30.12 in 10.0 mi Variable 5.8 mph - N/A   Scattered Clouds
3:53 PM 70.0 °F - 43.0 °F 38% 30.12 in 10.0 mi Variable 4.6 mph - N/A   Scattered Clouds
4:53 PM 71.1 °F - 44.1 °F 38% 30.11 in 10.0 mi North 5.8 mph - N/A   Scattered Clouds
5:53 PM 70.0 °F - 44.1 °F 39% 30.11 in 10.0 mi NW 4.6 mph - N/A   Partly Cloudy
6:53 PM 63.0 °F - 48.0 °F 58% 30.12 in 10.0 mi Calm Calm - N/A   Partly Cloudy
7:53 PM 59.0 °F - 46.9 °F 64% 30.14 in 10.0 mi SW 5.8 mph - N/A   Clear
8:53 PM 57.0 °F - 46.0 °F 67% 30.17 in 10.0 mi SSW 3.5 mph - N/A   Partly Cloudy
9:53 PM 55.9 °F - 45.0 °F 67% 30.18 in 10.0 mi WSW 5.8 mph - N/A   Partly Cloudy
10:53 PM 55.0 °F - 46.0 °F 72% 30.19 in 10.0 mi WNW 3.5 mph - N/A   Partly Cloudy
11:53 PM 51.1 °F - 44.1 °F 77% 30.18 in 10.0 mi Calm Calm - N/A   Clear